Location: Cantaing
(50.1487°N, 3.1675°E)
Time: 15:53:58
(UTC+00:00)

Meteor 2-19 Rocket - Pass Details

Date: 20 April 2026
Orbit: 936 x 958 km, 82.5° (Epoch: 13 May)

Event Time Altitude Azimuth Distance (km) Brightness Sun altitude
Rises 19:23:08 0° 346° (NNW) 3,648 8.1 -5.8°
Reaches altitude 10° 19:25:43 10° 342° (NNW) 2,695 7.5 -6.2°
Maximum altitude 19:31:38 51° 268° (W) 1,185 5.4 -7.0°
Drops below altitude 10° 19:37:29 10° 195° (SSW) 2,663 6.7 -7.9°
Sets 19:40:01 0° 190° (S) 3,600 7.3 -8.2°
